Regional Weather Roundup
Issued by NWS

Home | Current Version | Previous Version | Graphics & Text | Print | Product List | Glossary On
Versions: 1 2 3 4 5 6 7 8 9 10 11 12 13 14 15 16 17 18 19 20 21 22 23 24 25 26 27
000
ASUS45 KCYS 291210
RWRWY

WYOMING REGIONAL WEATHER ROUNDUP
NATIONAL WEATHER SERVICE CHEYENNE WY
600 AM MDT THU SEP 29 2016

NOTE:  "FAIR" INDICATES FEW OR NO CLOUDS BELOW 12,000 FEET
WITH NO SIGNIFICANT WEATHER AND/OR OBSTRUCTIONS TO VISIBILITY.

WYZ001-291300-
YELLOWSTONE NATIONAL PARK

CITY           SKY/WX    TMP DP  RH WIND       PRES   REMARKS
LK YELLOWSTONE   N/A     33  33 100 CALM      30.41F
6HR MIN TEMP:  32; 6HR MAX TEMP:  37;

W YELLOWSTONE  NOT AVBL

$$
WYZ002>013-054>058-071-098>099-291300-
NORTHERN WYOMING

CITY           SKY/WX    TMP DP  RH WIND       PRES   REMARKS
JACKSON        FAIR      43  39  87 CALM      30.33F
CODY           FAIR      52  40  63 SE7       30.23S
GREYBULL       FAIR      51  43  74 S6        30.18S
6HR MIN TEMP:  48; 6HR MAX TEMP:  60;

WORLAND        FAIR      53  42  66 S10       30.19S
6HR MIN TEMP:  45; 6HR MAX TEMP:  57;

SHERIDAN       FAIR      44  39  82 S3        30.18S
6HR MIN TEMP:  43; 6HR MAX TEMP:  68;

BUFFALO        FAIR      56  37  49 S3        30.24S
6HR MIN TEMP:  51; 6HR MAX TEMP:  60;

GILLETTE       FAIR      50  43  77 SE9       30.25S
6HR MIN TEMP:  50; 6HR MAX TEMP:  59;

HULETT         FAIR      59  39  47 S8        30.28F
NEWCASTLE      FAIR      57  36  44 E8G16     30.32S

$$
WYZ014>020-022>026-101>103-291300-
CENTRAL WYOMING

CITY           SKY/WX    TMP DP  RH WIND       PRES   REMARKS
BIG PINEY      CLOUDY    47  37  68 E7        30.37F
6HR MIN TEMP:  41; 6HR MAX TEMP:  47;

PINEDALE       CLOUDY    46  39  76 W5        30.39F
DUBOIS         FAIR      41  34  75 CALM      30.38F
LANDER         MOCLDY    53  40  61 S5        30.29F
6HR MIN TEMP:  49; 6HR MAX TEMP:  58;

RIVERTON       FAIR      52  41  66 NW9       30.30S
6HR MIN TEMP:  47; 6HR MAX TEMP:  59;

CASPER         FAIR      41  38  89 NW3       30.31R
6HR MIN TEMP:  40; 6HR MAX TEMP:  49;

DOUGLAS        FAIR      50  39  66 SE9       30.29F
6HR MIN TEMP:  49; 6HR MAX TEMP:  57;


$$
WYZ021-027>030-104>119-291300-
SOUTHERN WYOMING

CITY           SKY/WX    TMP DP  RH WIND       PRES   REMARKS
EVANSTON       FAIR      53  37  54 SE5       30.35F
6HR MIN TEMP:  53; 6HR MAX TEMP:  56;

FORT BRIDGER   FAIR      58  40  50 SW10      30.38S
ROCK SPRINGS   MOCLDY    56  40  55 CALM      30.36F
6HR MIN TEMP:  51; 6HR MAX TEMP:  59;

DIXON          FAIR      49  36  59 E5        30.42S
RAWLINS        FAIR      45  33  63 VRB3      30.39S
6HR MIN TEMP:  41; 6HR MAX TEMP:  54;

SARATOGA       PTSUNNY   46  32  57 S3        30.42S
LARAMIE        FAIR      41  34  76 VRB5      30.41R
6HR MIN TEMP:  39; 6HR MAX TEMP:  54;

CHEYENNE       FAIR      47  38  71 CALM      30.38F
6HR MIN TEMP:  45; 6HR MAX TEMP:  54;

TORRINGTON     FAIR      45  38  76 E7        30.32F
6HR MIN TEMP:  45; 6HR MAX TEMP:  55;

PINE BLUFFS    FAIR      37  34  87 CALM      30.37S

$$




USA.gov is the U.S. government's official web portal to all federal, state and local government web resources and services.